This demonstration page uses our WeatherBlox Daily Observations layout. Learn more.

Hourly Observations for September 15, 2016

Temp ( °F °C ) Dew Point ( °F °C ) Humidity (%) Winds ( mph kmh ) Pressure ( in mb ) Visibility ( mi km ) Precip ( " mm )
12:15 am 00:15 Cloudy with Mist and Fog 58 14.4 57 13.7 96 96 SE 9 15 30.09 1019 5 8.04672 0 0
12:35 am 00:35 Cloudy with Mist and Fog 58 14.5 57 13.8 96 96 SE 7 11 30.09 1019 5 8.04672 0 0
12:55 am 00:55 Cloudy with Mist and Fog 58 14.7 57 14 96 96 SE 9 15 30.09 1019 1.75 2.816352 0 0
1:15 am 01:15 Cloudy with Mist and Fog 59 15.1 58 14.5 96 96 SE 10 17 30.09 1019 0.75 1.207008 0 0
1:35 am 01:35 Cloudy with Fog 59 15.1 58 14.5 96 96 SE 12 19 30.06 1018 0.5 0.804672 0 0
1:55 am 01:55 Cloudy with Fog 59 15.1 58 14.5 96 96 SE 12 19 30.06 1018 0.5 0.804672 0 0
2:15 am 02:15 Cloudy with Fog 59 15.2 58 14.6 96 96 SE 10 17 30.06 1018 0.5 0.804672 0 0
2:35 am 02:35 Cloudy with Fog 60 15.5 59 14.8 96 96 SE 9 15 30.06 1018 0.5 0.804672 0 0
2:55 am 02:55 Cloudy with Fog 60 15.8 59 15.2 96 96 SSE 10 17 30.06 1018 0.5 0.804672 0 0
3:15 am 03:15 Cloudy with Mist and Fog 61 16 60 15.5 97 97 SSE 12 19 30.03 1017 0.75 1.207008 0 0
3:35 am 03:35 Cloudy with Mist and Fog 61 16.3 60 15.7 96 96 SSE 10 17 30.03 1017 1.25 2.01168 0 0
3:55 am 03:55 Cloudy with Mist and Fog 62 16.5 61 16 97 97 SE 13 20 30.03 1017 2 3.218688 0 0
4:15 am 04:15 Cloudy with Mist and Fog 62 16.8 61 16.2 96 96 SSE 12 19 30 1016 1.25 2.01168 0 0
4:35 am 04:35 Cloudy with Mist and Fog 63 17 62 16.4 96 96 SSE 16 26 29.97 1015 1 1.609344 0 0
4:55 am 04:55 Cloudy with Mist and Fog 63 17.1 62 16.5 96 96 SSE 10 17 29.97 1015 0.75 1.207008 0 0
5:15 am 05:15 Cloudy with Mist and Fog 63 17.2 62 16.7 97 97 SSE 13 20 29.97 1015 0.75 1.207008 0 0
5:35 am 05:35 Cloudy with Mist and Fog 64 17.5 63 17 97 97 SSE 13 20 29.97 1015 1 1.609344 0 0
5:55 am 05:55 Cloudy with Mist and Fog 64 17.6 63 17.1 97 97 S 14 22 29.97 1015 1.25 2.01168 0 0
6:15 am 06:15 Cloudy with Mist and Fog 64 17.6 63 17.1 97 97 SSE 12 19 29.97 1015 0.75 1.207008 0 0
6:35 am 06:35 Cloudy with Mist and Fog 64 17.7 63 17.2 97 97 SSE 15 24 29.97 1015 1 1.609344 0 0
6:55 am 06:55 Cloudy with Mist and Fog 64 17.9 63 17.3 96 96 SSE 14 22 29.94 1014 1.75 2.816352 0 0
7:15 am 07:15 Cloudy with Mist and Fog 64 17.8 63 17.3 97 97 SSE 14 22 29.97 1015 1.25 2.01168 0 0
7:35 am 07:35 Cloudy with Mist and Fog 64 17.9 63 17.3 96 96 SSE 13 20 29.97 1015 1.25 2.01168 0 0
7:55 am 07:55 Cloudy with Mist and Fog 64 17.8 63 17.3 97 97 SSE 13 20 29.97 1015 1 1.609344 0 0
8:15 am 08:15 Cloudy with Fog 64 18 63 17.3 96 96 SSE 14 22 29.97 1015 0.5 0.804672 0 0
8:35 am 08:35 Cloudy with Fog 64 18 63 17.3 96 96 SSE 15 24 29.94 1014 0.5 0.804672 0 0
8:55 am 08:55 Cloudy with Mist and Fog 64 18 64 17.5 97 97 S 16 26 29.94 1014 0.75 1.207008 0 0
9:15 am 09:15 Cloudy with Fog 64 18 64 17.5 97 97 S 9 15 29.94 1014 0.5 0.804672 0 0
9:35 am 09:35 Cloudy with Fog 65 18.1 64 17.5 96 96 S 10 17 29.94 1014 0.5 0.804672 0 0
9:55 am 09:55 Cloudy with Mist and Fog 65 18.2 64 17.6 96 96 S 10 17 29.94 1014 1 1.609344 0 0
10:15 am 10:15 Cloudy with Mist and Fog 65 18.5 64 17.8 96 96 S 13 20 29.94 1014 2 3.218688 0 0
10:35 am 10:35 Cloudy with Mist and Fog 65 18.6 64 18 96 96 S 10 17 29.94 1014 4 6.437376 0 0
10:55 am 10:55 Cloudy with Mist and Fog 66 19.1 65 18.5 96 96 S 12 19 29.94 1014 5 8.04672 0 0
11:15 am 11:15 Cloudy 68 20 65 18.5 91 91 S 9 15 29.91 1013 7 11.265408 0 0
11:35 am 11:35 Cloudy 69 20.3 65 18.1 87 87 S 12 19 29.91 1013 10 16.09344 0 0
11:55 am 11:55 Cloudy 69 20.6 65 18.1 86 86 S 12 19 29.91 1013 10 16.09344 0 0
12:15 pm 12:15 Cloudy 72 22.3 64 17.7 75 75 SSW 14 22 29.91 1013 10 16.09344 0 0
12:35 pm 12:35 Mostly Cloudy 72 22.2 63 17.2 73 73 SSW 14 22 29.91 1013 10 16.09344 0 0
12:55 pm 12:55 Mostly Cloudy 74 23.2 64 17.5 70 70 SSW 9 15 29.85 1011 10 16.09344 0 0
1:15 pm 13:15 Partly Cloudy 76 24.5 64 17.6 66 66 S 10 17 29.85 1011 10 16.09344 0 0
1:35 pm 13:35 Mostly Cloudy 76 24.3 63 17.4 65 65 S 10 17 29.85 1011 10 16.09344 0 0
1:55 pm 13:55 Cloudy 76 24.5 63 17.4 65 65 S 7 11 29.85 1011 10 16.09344 0 0
2:15 pm 14:15 Mostly Cloudy 78 25.8 63 17.4 60 60 S 7 11 29.85 1011 10 16.09344 0 0
2:35 pm 14:35 Mostly Cloudy 78 25.6 63 17.4 61 61 SW 8 13 29.85 1011 10 16.09344 0 0
2:55 pm 14:55 Mostly Cloudy 79 26.3 63 17.3 58 58 SSW 6 9 29.8 1009 10 16.09344 0 0
3:15 pm 15:15 Mostly Cloudy 78 25.6 63 17.3 60 60 S 6 9 29.83 1010 10 16.09344 0 0
3:35 pm 15:35 Cloudy 78 25.5 64 17.5 61 61 Calm 29.83 1010 10 16.09344 0 0
3:55 pm 15:55 Cloudy 78 25.6 64 17.6 61 61 Calm 29.8 1009 10 16.09344 0 0
4:15 pm 16:15 Cloudy 79 26.1 64 17.8 60 60 Calm 29.77 1008 10 16.09344 0 0
4:35 pm 16:35 Mostly Cloudy 80 26.9 64 17.6 57 57 Calm 29.77 1008 10 16.09344 0 0
4:55 pm 16:55 Cloudy 80 26.4 63 17.1 57 57 Calm 29.77 1008 10 16.09344 0 0
5:15 pm 17:15 Cloudy 81 27 63 17.2 55 55 Calm 29.74 1007 10 16.09344 0 0
5:35 pm 17:35 Mostly Cloudy 81 27.2 62 16.9 53 53 S 7 11 29.74 1007 10 16.09344 0 0
5:55 pm 17:55 Mostly Cloudy 80 26.6 62 16.8 55 55 SE 7 11 29.74 1007 10 16.09344 0 0
6:15 pm 18:15 Mostly Cloudy with Light Rain 77 25.1 64 17.6 63 63 S 3 6 29.77 1008 10 16.09344 0 0
6:35 pm 18:35 Partly Cloudy 75 23.7 67 19.7 78 78 E 3 6 29.77 1008 10 16.09344 0 0
6:55 pm 18:55 Mostly Cloudy with Nearby Thunderstorms 74 23.2 64 17.9 72 72 NNW 10 17 29.8 1009 10 16.09344 0 0
7:15 pm 19:15 Mostly Cloudy 72 22.2 63 17 73 73 Calm 29.8 1009 10 16.09344 0 0
7:35 pm 19:35 Mostly Cloudy 70 21.1 64 17.5 80 80 NNE 3 6 29.8 1009 10 16.09344 0 0
7:55 pm 19:55 Mostly Cloudy 69 20.6 64 17.6 83 83 NNE 7 11 29.77 1008 10 16.09344 0 0
8:15 pm 20:15 Mostly Cloudy 69 20.8 63 17.4 81 81 NE 6 9 29.8 1009 10 16.09344 0 0
8:35 pm 20:35 Cloudy with Light Thunderstorms 69 20.8 64 17.5 82 82 Calm 29.8 1009 10 16.09344 0 0
8:55 pm 20:55 Cloudy 73 22.5 65 18.5 78 78 SE 7 11 29.74 1007 10 16.09344 0 0
9:15 pm 21:15 Cloudy with Thunderstorms 63 17.1 57 14 82 82 WSW 20 31 29.91 1013 5 8.04672 0.04 1.016
9:35 pm 21:35 Cloudy with Nearby Thunderstorms 62 16.9 57 14 83 83 W 17 28 29.88 1012 7 11.265408 0.25 6.35
9:55 pm 21:55 Cloudy with Rain 62 16.9 58 14.5 86 86 WSW 9 15 29.94 1014 10 16.09344 0.32 8.128
10:15 pm 22:15 Cloudy with Nearby Thunderstorms 62 16.6 59 14.9 90 90 WNW 12 19 29.94 1014 7 11.265408 0.08 2.032
10:35 pm 22:35 Cloudy with Rain 60 15.8 58 14.3 91 91 NNE 13 20 29.91 1013 7 11.265408 0.16 4.064
10:55 pm 22:55 Cloudy with Light Thunderstorms 61 15.9 55 13 83 83 ENE 16 26 29.88 1012 10 16.09344 0.19 4.826
11:15 pm 23:15 Cloudy 62 16.4 55 12.8 79 79 NE 8 13 29.91 1013 10 16.09344 0 0
11:35 pm 23:35 Cloudy with Light Rain 60 15.8 57 14 89 89 ESE 6 9 29.91 1013 10 16.09344 0.01 0.254
11:55 pm 23:55 Cloudy with Light Rain 60 15.6 57 13.8 89 89 Calm 29.85 1011 10 16.09344 0.02 0.508

Powered by AerisWeather